Weather History for KGHG - February, 2013

Change the Weather History Date:

Thursday, February 7, 2013

  Actual Average (KPYM) Record (KPYM)
Temperature  
Mean Temperature 28 °F -  
Max Temperature 32 °F 35 °F 53 °F (1951)
Min Temperature 23 °F 15 °F -4 °F (1976)
Degree Days  
Heating Degree Days 38    
Moisture  
Dew Point 9 °F    
Average Humidity 45    
Maximum Humidity 75    
Minimum Humidity 29    
Precipitation  
Precipitation 0.00 in - - ()
Sea Level Pressure  
Sea Level Pressure 30.47 in    
Wind  
Wind Speed 5 mph (NW)    
Max Wind Speed 10 mph    
Max Gust Speed 17 mph    
Visibility 10 miles    
Events      
Averages and records for this station are not official NWS values.
T = Trace of Precipitation, MM = Missing Value Source: NWS Daily Summary

Daily Weather History Graph

Daily Weather History Graph

Search for Another Location

Airport or City:

Trip Planner

Search our weather history database for the weather conditions in past years. The results will help you decide how hot, cold, wet, or windy it might be!

Date:

Astronomy

Feb. 07, 2013 Rise Set
Actual Time 6:48 AM EST 5:05 PM EST
Civil Twilight 6:19 AM EST 5:34 PM EST
Nautical Twilight 5:46 AM EST 6:07 PM EST
Astronomical Twilight 5:13 AM EST 6:40 PM EST
Moon 4:27 AM EST (2/7) 2:24 PM EST (2/7)
Length of Visible Light 11h 15m
Length of Day
10h 16m
Waning Crescent, 9% of the Moon is Illuminated
Feb 7
Waning Crescent
Feb 10
New
Feb 17
First Quarter
Feb 25
Full
Mar 4
Last Quarter

Hourly Weather History & Observations

Time (EST) Temp. Windchill Dew Point Humidity Pressure Visibility Wind Dir Wind Speed Gust Speed Precip Events Conditions
12:15 AM 30.2 °F 24.3 °F 5.0 °F 34% 30.30 in 10.0 mi West 5.8 mph - N/A   Clear
12:35 AM 28.4 °F 23.3 °F 5.0 °F 37% 30.31 in 10.0 mi West 4.6 mph - N/A   Clear
12:55 AM 28.4 °F 22.2 °F 5.0 °F 37% 30.32 in 10.0 mi West 5.8 mph - N/A   Clear
1:15 AM 28.4 °F 23.3 °F 5.0 °F 37% 30.32 in 10.0 mi West 4.6 mph - N/A   Clear
1:35 AM 28.4 °F 23.3 °F 5.0 °F 37% 30.33 in 10.0 mi West 4.6 mph - N/A   Clear
1:55 AM 26.6 °F 22.6 °F 6.8 °F 43% 30.34 in 10.0 mi West 3.5 mph - N/A   Clear
2:15 AM 26.6 °F 22.6 °F 6.8 °F 43% 30.35 in 10.0 mi West 3.5 mph - N/A   Clear
2:35 AM 26.6 °F 22.6 °F 6.8 °F 43% 30.34 in 10.0 mi West 3.5 mph - N/A   Clear
2:55 AM 24.8 °F 20.5 °F 6.8 °F 46% 30.36 in 10.0 mi WSW 3.5 mph - N/A   Clear
3:15 AM 24.8 °F 20.5 °F 8.6 °F 50% 30.37 in 10.0 mi West 3.5 mph - N/A   Clear
3:35 AM 23.0 °F 17.0 °F 10.4 °F 59% 30.38 in 10.0 mi WNW 4.6 mph - N/A   Clear
3:55 AM 24.8 °F - 10.4 °F 54% 30.39 in 10.0 mi Calm Calm - N/A   Clear
4:15 AM 24.8 °F 20.5 °F 10.4 °F 54% 30.40 in 10.0 mi WNW 3.5 mph - N/A   Clear
4:35 AM 24.8 °F 17.9 °F 8.6 °F 50% 30.40 in 10.0 mi NW 5.8 mph - N/A   Clear
4:55 AM 26.6 °F 19.1 °F 8.6 °F 47% 30.40 in 10.0 mi NW 6.9 mph - N/A   Clear
5:15 AM 24.8 °F 17.9 °F 8.6 °F 50% 30.41 in 10.0 mi NW 5.8 mph - N/A   Clear
5:35 AM 24.8 °F 16.9 °F 8.6 °F 50% 30.42 in 10.0 mi NW 6.9 mph - N/A   Clear
5:55 AM 24.8 °F 19.1 °F 6.8 °F 46% 30.42 in 10.0 mi NW 4.6 mph - N/A   Clear
6:15 AM 23.0 °F 17.0 °F 6.8 °F 50% 30.43 in 10.0 mi WNW 4.6 mph - N/A   Clear
6:35 AM 23.0 °F 17.0 °F 6.8 °F 50% 30.44 in 10.0 mi WNW 4.6 mph - N/A   Clear
6:55 AM 23.0 °F 18.4 °F 8.6 °F 54% 30.46 in 10.0 mi West 3.5 mph - N/A   Clear
7:15 AM 23.0 °F 15.8 °F 6.8 °F 50% 30.46 in 10.0 mi WNW 5.8 mph - N/A   Clear
7:35 AM 24.8 °F 19.1 °F 6.8 °F 46% 30.47 in 10.0 mi WNW 4.6 mph - N/A   Clear
7:55 AM 24.8 °F - 5.0 °F 43% 30.49 in 10.0 mi Calm Calm - N/A   Clear
8:15 AM 26.6 °F 18.2 °F 5.0 °F 40% 30.51 in 10.0 mi West 8.1 mph - N/A   Clear
8:55 AM 26.6 °F 20.0 °F 5.0 °F 40% 30.51 in 10.0 mi WNW 5.8 mph - N/A   Overcast
9:15 AM 26.6 °F 17.5 °F 3.2 °F 37% 30.51 in 10.0 mi WNW 9.2 mph - N/A   Mostly Cloudy
9:35 AM 26.6 °F 19.1 °F 3.2 °F 37% 30.52 in 10.0 mi WNW 6.9 mph - N/A   Partly Cloudy
9:55 AM 26.6 °F 16.8 °F 3.2 °F 37% 30.52 in 10.0 mi West 10.4 mph - N/A   Clear
10:15 AM 26.6 °F 18.2 °F 1.4 °F 34% 30.53 in 10.0 mi West 8.1 mph - N/A   Partly Cloudy
10:35 AM 28.4 °F 19.7 °F 3.2 °F 34% 30.54 in 10.0 mi NW 9.2 mph 17.3 mph N/A   Partly Cloudy
10:55 AM 28.4 °F 19.1 °F 1.4 °F 31% 30.54 in 10.0 mi WNW 10.4 mph 16.1 mph N/A   Mostly Cloudy
11:15 AM 28.4 °F 19.7 °F 3.2 °F 34% 30.53 in 10.0 mi West 9.2 mph 16.1 mph N/A   Scattered Clouds
11:35 AM 30.2 °F 21.9 °F 3.2 °F 32% 30.53 in 10.0 mi West 9.2 mph - N/A   Scattered Clouds
11:55 AM 30.2 °F 23.4 °F 1.4 °F 29% 30.52 in 10.0 mi WNW 6.9 mph - N/A   Mostly Cloudy
12:15 PM 30.2 °F 21.9 °F 1.4 °F 29% 30.52 in 10.0 mi NW 9.2 mph - N/A   Mostly Cloudy
12:35 PM 30.2 °F 23.4 °F 3.2 °F 32% 30.51 in 10.0 mi NW 6.9 mph - N/A   Clear
12:55 PM 30.2 °F 21.9 °F 1.4 °F 29% 30.51 in 10.0 mi NW 9.2 mph - N/A   Clear
1:15 PM 30.2 °F 21.9 °F 1.4 °F 29% 30.50 in 10.0 mi NNW 9.2 mph - N/A   Clear
1:35 PM 30.2 °F 21.9 °F 3.2 °F 32% 30.50 in 10.0 mi NNW 9.2 mph - N/A   Clear
1:55 PM 30.2 °F 23.4 °F 5.0 °F 34% 30.50 in 10.0 mi NNW 6.9 mph 16.1 mph N/A   Clear
2:15 PM 30.2 °F 21.9 °F 5.0 °F 34% 30.50 in 10.0 mi North 9.2 mph - N/A   Clear
2:35 PM 30.2 °F 23.4 °F 3.2 °F 32% 30.50 in 10.0 mi NNW 6.9 mph - N/A   Clear
2:55 PM 30.2 °F 26.7 °F 3.2 °F 32% 30.50 in 10.0 mi North 3.5 mph - N/A   Clear
3:15 PM 30.2 °F 25.4 °F 5.0 °F 34% 30.50 in 10.0 mi North 4.6 mph - N/A   Clear
3:35 PM 30.2 °F 25.4 °F 5.0 °F 34% 30.50 in 10.0 mi NW 4.6 mph - N/A   Scattered Clouds
3:55 PM 28.4 °F 24.6 °F 5.0 °F 37% 30.50 in 10.0 mi NNW 3.5 mph - N/A   Mostly Cloudy
4:15 PM 28.4 °F 24.6 °F 5.0 °F 37% 30.50 in 10.0 mi NW 3.5 mph - N/A   Scattered Clouds
4:35 PM 28.4 °F 22.2 °F 6.8 °F 40% 30.50 in 10.0 mi NNE 5.8 mph - N/A   Partly Cloudy
4:55 PM 28.4 °F - 8.6 °F 43% 30.50 in 10.0 mi Calm Calm - N/A   Clear
5:15 PM 28.4 °F 23.3 °F 8.6 °F 43% 30.51 in 10.0 mi North 4.6 mph - N/A   Clear
5:35 PM 28.4 °F 24.6 °F 10.4 °F 47% 30.51 in 10.0 mi ENE 3.5 mph - N/A   Clear
5:55 PM 28.4 °F 24.6 °F 10.4 °F 47% 30.52 in 10.0 mi NE 3.5 mph - N/A   Clear
6:15 PM 28.4 °F 22.2 °F 12.2 °F 51% 30.52 in 10.0 mi ENE 5.8 mph - N/A   Clear
6:35 PM 28.4 °F 24.6 °F 12.2 °F 51% 30.53 in 10.0 mi NNE 3.5 mph - N/A   Scattered Clouds
6:55 PM 28.4 °F 23.3 °F 12.2 °F 51% 30.54 in 10.0 mi NE 4.6 mph - N/A   Overcast
7:15 PM 28.4 °F 22.2 °F 12.2 °F 51% 30.53 in 10.0 mi NE 5.8 mph - N/A   Mostly Cloudy
7:35 PM 28.4 °F 22.2 °F 14.0 °F 55% 30.53 in 10.0 mi NE 5.8 mph - N/A   Mostly Cloudy
7:55 PM 28.4 °F 22.2 °F 14.0 °F 55% 30.52 in 10.0 mi East 5.8 mph - N/A   Mostly Cloudy
8:15 PM 28.4 °F 24.6 °F 14.0 °F 55% 30.53 in 10.0 mi ENE 3.5 mph - N/A   Mostly Cloudy
8:35 PM 28.4 °F - 15.8 °F 59% 30.53 in 10.0 mi Calm Calm - N/A   Overcast
8:55 PM 30.2 °F 24.3 °F 17.6 °F 60% 30.52 in 10.0 mi ENE 5.8 mph - N/A   Overcast
9:15 PM 30.2 °F 25.4 °F 19.4 °F 64% 30.52 in 10.0 mi ENE 4.6 mph - N/A   Overcast
9:35 PM 30.2 °F 23.4 °F 19.4 °F 64% 30.51 in 10.0 mi ENE 6.9 mph - N/A   Overcast
9:55 PM 30.2 °F 22.6 °F 21.2 °F 69% 30.51 in 10.0 mi NE 8.1 mph - N/A   Overcast
10:15 PM 30.2 °F - 21.2 °F 69% 30.51 in 10.0 mi Calm Calm - N/A   Overcast
10:35 PM 30.2 °F 23.4 °F 23.0 °F 75% 30.50 in 10.0 mi East 6.9 mph - N/A   Overcast
10:55 PM 32.0 °F 25.6 °F 23.0 °F 69% 30.50 in 10.0 mi East 6.9 mph - N/A   Overcast
11:15 PM 32.0 °F 26.4 °F 23.0 °F 69% 30.50 in 10.0 mi East 5.8 mph - N/A   Overcast
11:55 PM 32.0 °F 25.6 °F 23.0 °F 69% 30.50 in 10.0 mi East 6.9 mph - N/A   Mostly Cloudy